Overview Statistics Trail Chart Weather Telemetry Raw packets
 

This is the latest recevied weather packets stored in our database for station/object N9DMT-13. If no packets are shown the sender has not sent any weather packets the latest 10 day(s).

<< 31 32 33 34 35 36 37 >>
Time Temp. Humidity Pressure Rain* Wind** Luminosity Snow
1777675119 12.22° C 34% 984.9 hPa 0 mm - - -
1777674818 11.11° C 35% 984.8 hPa 0 mm - - -
1777674517 11.11° C 35% 984.9 hPa 0 mm - - -
1777674217 11.11° C 36% 984.8 hPa 0 mm - - -
1777673916 11.11° C 34% 985 hPa 0 mm - - -
1777673615 11.11° C 35% 984.9 hPa 0 mm - - -
1777673314 11.11° C 37% 984.9 hPa 0 mm - - -
1777673014 11.11° C 34% 985 hPa 0 mm - - -
1777672713 11.67° C 33% 984.8 hPa 0 mm - - -
1777672412 12.22° C 33% 984.8 hPa 0 mm - - -
1777672111 12.22° C 34% 984.8 hPa 0 mm - - -
1777671811 12.22° C 33% 984.9 hPa 0 mm - - -
1777671510 11.67° C 34% 984.7 hPa 0 mm - - -
1777671209 11.11° C 35% 984.8 hPa 0 mm - - -
1777670908 11.11° C 34% 984.8 hPa 0 mm - - -
1777670608 12.22° C 35% 984.8 hPa 0 mm - - -
1777670307 13.33° C 31% 984.8 hPa 0 mm - - -
1777670006 12.78° C 33% 984.6 hPa 0 mm - - -
1777669705 11.67° C 33% 984.8 hPa 0 mm - - -
1777669405 11.11° C 36% 984.6 hPa 0 mm - - -
1777669104 10.56° C 37% 984.7 hPa 0 mm - - -
1777668803 11.11° C 37% 984.8 hPa 0 mm - - -
1777668502 11.11° C 35% 984.7 hPa 0 mm - - -
1777668202 11.11° C 34% 984.8 hPa 0 mm - - -
1777667901 10.56° C 35% 984.8 hPa 0 mm - - -

* Rain latest hour (hover to see other rain measurements)
** Current wind speed in m/s (hover to see current wind gust speed)